Location: Augustenthal
(51.7167°N, 10.2833°E)
Time: 09:13:24
(UTC+00:00)

Cosmos 1340 Rocket - Pass Details

Date: 18 May 2021
Orbit: 528 x 559 km, 81.2° (Epoch: 15 June)

Event Time Altitude Azimuth Distance (km) Brightness Sun altitude
Rises 20:02:57 0° 351° (N) 2,759 7.4 -7.1°
Reaches altitude 10° 20:05:12 10° 357° (N) 1,857 6.3 -7.4°
Maximum altitude 20:09:11 49° 73° (ENE) 725 3.3 -7.8°
Enters shadow 20:13:04 10° 149° (SSE) 1,813 4.8 -8.2°
